Ionia, MI

3:17 AM EST on November 18, 2019 (GMT -0500)
Ionia

Weather History for KY70 - September, 2019

Change the Weather History Date:

Tuesday, September 3, 2019

  Actual Average (KGRR) Record (KGRR)
Temperature  
Mean Temperature 70 °F -  
Max Temperature 80 °F 77 °F 95 °F (1953)
Min Temperature 60 °F 56 °F 32 °F (1946)
Cooling Degree Days 5    
Growing Degree Days 20 (Base 50)    
Moisture  
Dew Point 62 °F    
Average Humidity 76    
Maximum Humidity 93    
Minimum Humidity 49    
Precipitation  
Precipitation 0.00 in - - ()
Sea Level Pressure  
Sea Level Pressure 29.89 in    
Wind  
Wind Speed 7 mph ()    
Max Wind Speed 26 mph    
Max Gust Speed 36 mph    
Visibility 10.0 miles    
Events Rain    
Averages and records for this station are not official NWS values.
T = Trace of Precipitation, MM = Missing Value Source: Averaged Metar Reports

Daily Weather History Graph

Daily Weather History Graph

Search for Another Location

Airport or City:

Astronomy

Sep. 03, 2019 Rise Set
Actual Time 7:06 AM EDT 8:11 PM EDT
Civil Twilight 6:37 AM EDT 8:40 PM EDT
Nautical Twilight 6:02 AM EDT 9:15 PM EDT
Astronomical Twilight 5:26 AM EDT 9:51 PM EDT
Moon 12:05 PM EDT (9/3) 11:00 PM EDT (9/3)
Length of Visible Light 14h 03m
Length of Day
13h 05m
Waxing Crescent, 24% of the Moon is Illuminated
Sep 3
Waxing Crescent
Sep 5
First Quarter
Sep 14
Full
Sep 21
Last Quarter
Sep 28
New

Hourly Weather History & Observations

Time (EDT) Temp. Heat Index Dew Point Humidity Pressure Visibility Wind Dir Wind Speed Gust Speed Precip Events Conditions
12:17 AM 65.8 °F - 59.9 °F 81% 30.06 in 10.0 mi Calm Calm - N/A   Mostly Cloudy
12:36 AM 65.3 °F - 59.5 °F 82% 30.05 in 10.0 mi Calm Calm - N/A   Mostly Cloudy
12:55 AM 61.9 °F - 59.2 °F 91% 30.04 in 10.0 mi Calm Calm - N/A   Clear
12:56 AM 61.7 °F - 59.2 °F 91% 30.04 in 10.0 mi Calm Calm - N/A   Clear
1:19 AM 63.7 °F - 60.1 °F 88% 30.04 in 10.0 mi Calm Calm - N/A   Mostly Cloudy
1:37 AM 62.2 °F - 59.2 °F 90% 30.04 in 10.0 mi Calm Calm - N/A   Mostly Cloudy
1:55 AM 61.3 °F - 59.4 °F 93% 30.04 in 10.0 mi Calm Calm - N/A   Mostly Cloudy
2:15 AM 62.6 °F - 59.7 °F 90% 30.03 in 10.0 mi Calm Calm - N/A   Mostly Cloudy
2:35 AM 61.7 °F - 59.2 °F 91% 30.02 in 10.0 mi East 3.5 mph - N/A   Mostly Cloudy
2:40 AM 60.8 °F - 58.5 °F 92% 30.02 in 10.0 mi Calm Calm - N/A   Mostly Cloudy
2:58 AM 61.5 °F - 59.4 °F 93% 30.02 in 10.0 mi Calm Calm - N/A   Overcast
3:16 AM 62.8 °F - 60.3 °F 91% 30.02 in 10.0 mi Calm Calm - N/A   Overcast
3:35 AM 62.8 °F - 60.8 °F 93% 30.01 in 10.0 mi SE 3.5 mph - N/A   Overcast
3:36 AM 62.8 °F - 60.8 °F 93% 30.01 in 10.0 mi SE 3.5 mph - N/A   Overcast
3:55 AM 62.8 °F - 60.8 °F 93% 30.01 in 10.0 mi SSE 3.5 mph - N/A   Overcast
4:19 AM 63.1 °F - 61.0 °F 93% 30.01 in 10.0 mi Calm Calm - N/A   Overcast
4:37 AM 63.1 °F - 61.0 °F 93% 30.01 in 10.0 mi Calm Calm - N/A   Overcast
4:55 AM 63.5 °F - 61.5 °F 93% 30.00 in 10.0 mi SSE 4.6 mph - N/A   Overcast
5:15 AM 63.7 °F - 61.5 °F 93% 29.99 in 10.0 mi SSE 5.8 mph - N/A   Overcast
5:35 AM 63.7 °F - 61.3 °F 92% 30.00 in 10.0 mi South 4.6 mph - N/A   Overcast
5:58 AM 64.6 °F - 61.2 °F 89% 30.00 in 10.0 mi South 5.8 mph - N/A   Overcast
6:16 AM 65.3 °F - 61.0 °F 86% 30.00 in 10.0 mi South 5.8 mph - N/A   Overcast
6:35 AM 65.7 °F - 60.8 °F 84% 29.99 in 10.0 mi South 6.9 mph - N/A   Overcast
6:36 AM 65.7 °F - 60.8 °F 84% 29.99 in 10.0 mi South 6.9 mph - N/A   Overcast
6:55 AM 66.2 °F - 61.7 °F 85% 29.99 in 10.0 mi South 8.1 mph - N/A   Mostly Cloudy
6:56 AM 66.2 °F - 61.7 °F 85% 29.99 in 10.0 mi South 8.1 mph - N/A   Mostly Cloudy
7:19 AM 67.5 °F - 62.8 °F 85% 29.99 in 10.0 mi SSW 12.7 mph - N/A   Scattered Clouds
7:37 AM 67.6 °F - 63.0 °F 85% 29.98 in 10.0 mi South 11.5 mph - N/A   Scattered Clouds
7:55 AM 67.6 °F - 63.1 °F 85% 29.97 in 10.0 mi SSW 15.0 mph - N/A   Scattered Clouds
7:56 AM 67.6 °F - 63.1 °F 85% 29.97 in 10.0 mi SSW 12.7 mph - N/A   Scattered Clouds
8:15 AM 67.8 °F - 63.1 °F 85% 29.94 in 10.0 mi South 15.0 mph 19.6 mph N/A   Clear
8:16 AM 68.0 °F - 63.1 °F 84% 29.94 in 10.0 mi South 16.1 mph 19.6 mph N/A   Clear
8:35 AM 68.5 °F - 63.0 °F 82% 29.94 in 10.0 mi SSW 13.8 mph 24.2 mph N/A   Scattered Clouds
8:40 AM 68.5 °F - 63.0 °F 82% 29.93 in 10.0 mi SSW 17.3 mph 23.0 mph N/A   Scattered Clouds
8:58 AM 69.1 °F - 63.1 °F 81% 29.94 in 10.0 mi SSW 15.0 mph 19.6 mph N/A   Light Drizzle
9:16 AM 69.8 °F - 62.8 °F 78% 29.93 in 10.0 mi SSW 17.3 mph 24.2 mph N/A   Scattered Clouds
9:35 AM 69.8 °F - 62.6 °F 78% 29.92 in 10.0 mi SSW 19.6 mph 25.3 mph N/A Rain Light Rain
9:55 AM 69.6 °F - 62.6 °F 78% 29.90 in 10.0 mi South 18.4 mph 26.5 mph N/A Rain Light Rain
10:19 AM 70.3 °F - 61.5 °F 74% 29.85 in 10.0 mi South 23.0 mph 29.9 mph N/A   Clear
10:37 AM 70.7 °F - 61.2 °F 72% 29.82 in 10.0 mi South 18.4 mph 31.1 mph N/A   Clear
10:55 AM 70.7 °F - 61.2 °F 72% 29.84 in 10.0 mi SSW 19.6 mph 29.9 mph N/A   Clear
10:56 AM 70.7 °F - 61.2 °F 72% 29.84 in 10.0 mi SSW 17.3 mph 29.9 mph N/A   Clear
11:15 AM 71.1 °F - 61.2 °F 71% 29.85 in 10.0 mi SSW 13.8 mph 24.2 mph N/A   Clear
11:16 AM 71.1 °F - 61.2 °F 71% 29.86 in 10.0 mi SSW 10.4 mph 24.2 mph N/A   Clear
11:35 AM 71.6 °F - 61.9 °F 71% 29.87 in 10.0 mi SW 9.2 mph 17.3 mph N/A   Clear
11:40 AM 71.6 °F - 62.1 °F 72% 29.89 in 10.0 mi SW 6.9 mph 17.3 mph N/A   Clear
11:58 AM 71.8 °F - 62.2 °F 72% 29.89 in 10.0 mi SW 10.4 mph - N/A   Scattered Clouds
12:16 PM 72.7 °F - 61.7 °F 68% 29.88 in 10.0 mi SSW 15.0 mph 21.9 mph N/A   Scattered Clouds
12:35 PM 72.7 °F - 61.7 °F 68% 29.89 in 10.0 mi SSW 12.7 mph 21.9 mph N/A   Mostly Cloudy
12:55 PM 72.5 °F - 61.7 °F 69% 29.90 in 10.0 mi Calm Calm - N/A   Overcast
1:19 PM 74.3 °F - 61.7 °F 65% 29.87 in 10.0 mi South 8.1 mph - N/A   Overcast
1:37 PM 75.2 °F - 61.7 °F 63% 29.85 in 10.0 mi South 12.7 mph 16.1 mph N/A   Scattered Clouds
1:55 PM 76.1 °F - 61.7 °F 61% 29.84 in 10.0 mi SSW 15.0 mph 19.6 mph N/A   Clear
2:15 PM 77.0 °F - 61.9 °F 59% 29.82 in 10.0 mi SSW 13.8 mph 21.9 mph N/A   Clear
2:35 PM 78.1 °F - 61.0 °F 56% 29.80 in 10.0 mi SSW 15.0 mph - N/A   Clear
2:58 PM 79.2 °F - 60.6 °F 53% 29.79 in 10.0 mi SSW 13.8 mph 21.9 mph N/A   Scattered Clouds
3:16 PM 80.1 °F 80.8 °F 59.5 °F 49% 29.79 in 10.0 mi SW 20.7 mph 32.2 mph N/A   Clear
3:35 PM 80.6 °F 81.4 °F 60.3 °F 50% 29.80 in 10.0 mi SW 17.3 mph 32.2 mph N/A   Scattered Clouds
3:36 PM 80.6 °F 81.4 °F 60.6 °F 50% 29.80 in 10.0 mi SW 18.4 mph 32.2 mph N/A   Scattered Clouds
3:55 PM 79.2 °F - 60.8 °F 53% 29.79 in 10.0 mi SW 16.1 mph 20.7 mph N/A   Mostly Cloudy
3:56 PM 79.3 °F - 61.0 °F 53% 29.79 in 10.0 mi SW 16.1 mph 24.2 mph N/A   Mostly Cloudy
4:19 PM 78.3 °F - 61.2 °F 56% 29.81 in 10.0 mi WSW 16.1 mph 21.9 mph N/A   Overcast
4:37 PM 77.4 °F - 61.7 °F 58% 29.79 in 10.0 mi WSW 18.4 mph 24.2 mph N/A   Overcast
4:55 PM 77.2 °F - 61.7 °F 59% 29.80 in 10.0 mi WSW 21.9 mph 28.8 mph N/A Rain Light Rain
5:15 PM 74.7 °F - 63.3 °F 68% 29.78 in 10.0 mi WSW 16.1 mph 33.4 mph N/A Rain Light Rain
5:16 PM 74.5 °F - 63.3 °F 68% 29.78 in 10.0 mi WSW 19.6 mph 33.4 mph N/A Rain Light Rain
5:35 PM 75.0 °F - 62.4 °F 65% 29.78 in 10.0 mi WSW 16.1 mph 26.5 mph N/A   Overcast
5:58 PM 75.2 °F - 62.8 °F 65% 29.77 in 10.0 mi SW 26.5 mph 35.7 mph N/A   Overcast
6:16 PM 75.4 °F - 62.8 °F 65% 29.77 in 10.0 mi SW 19.6 mph 28.8 mph N/A   Overcast
6:35 PM 75.4 °F - 63.7 °F 67% 29.76 in 10.0 mi SW 18.4 mph 29.9 mph N/A   Overcast
6:36 PM 75.4 °F - 63.7 °F 67% 29.76 in 10.0 mi SW 17.3 mph 28.8 mph N/A   Overcast
6:55 PM 75.2 °F - 64.6 °F 69% 29.76 in 10.0 mi SW 12.7 mph 23.0 mph N/A   Overcast
7:19 PM 75.2 °F - 65.3 °F 71% 29.77 in 10.0 mi SW 12.7 mph 19.6 mph N/A   Overcast
7:37 PM 75.2 °F - 65.7 °F 72% 29.77 in 10.0 mi WSW 11.5 mph 19.6 mph N/A   Overcast
7:55 PM 74.7 °F - 66.0 °F 74% 29.77 in 10.0 mi WSW 10.4 mph 16.1 mph N/A   Overcast
7:56 PM 74.7 °F - 66.0 °F 74% 29.77 in 10.0 mi WSW 10.4 mph 16.1 mph N/A   Overcast
8:15 PM 74.5 °F - 66.4 °F 76% 29.76 in 10.0 mi WSW 5.8 mph - N/A   Overcast
8:35 PM 74.3 °F - 66.6 °F 77% 29.77 in 10.0 mi WSW 4.6 mph - N/A   Overcast
8:58 PM 74.3 °F - 67.1 °F 78% 29.77 in 10.0 mi SW 6.9 mph - N/A   Overcast
9:16 PM 73.9 °F - 67.3 °F 80% 29.77 in 10.0 mi SW 8.1 mph - N/A   Overcast
9:35 PM 74.3 °F - 68.0 °F 81% 29.77 in 10.0 mi West 10.4 mph 18.4 mph N/A   Overcast
9:55 PM 75.6 °F - 69.4 °F 81% 29.77 in 10.0 mi WSW 11.5 mph - N/A   Overcast
9:56 PM 75.6 °F - 69.4 °F 81% 29.77 in 10.0 mi WSW 12.7 mph - N/A   Overcast
10:19 PM 75.2 °F - 69.8 °F 83% 29.77 in 10.0 mi West 13.8 mph 20.7 mph N/A   Overcast
10:37 PM 74.8 °F - 69.3 °F 83% 29.78 in 10.0 mi West 12.7 mph 20.7 mph N/A   Mostly Cloudy
10:55 PM 73.8 °F - 65.5 °F 75% 29.78 in 10.0 mi WNW 9.2 mph - N/A   Scattered Clouds
11:15 PM 72.7 °F - 63.9 °F 74% 29.79 in 10.0 mi WNW 11.5 mph 18.4 mph N/A   Clear
11:35 PM 72.3 °F - 63.1 °F 73% 29.79 in 10.0 mi WNW 8.1 mph - N/A   Clear
11:58 PM 71.1 °F - 62.8 °F 75% 29.80 in 10.0 mi WNW 8.1 mph - N/A   Scattered Clouds